Temperature
22 21 20 20 19 19 21 22 23 22 22 22 22 21 20 20 20 19 19 19 19 19 19 19 19 19 19 19 19 19 19 19 19 19 19 19 19 19 19 19 19 19 18 18 18 18 18 18 18
22 21 20 20 19 20 21 22 22 22 22 22 21 21 20 19 19 19 19 19 19 19 19 19 19 19 19 19 19 19 19 19 19 19 19 19 19 19 19 18 18 19 18 18 18 18 18 18 18
21 21 21 19 20 20 22 23 22 22 22 22 21 20 20 19 19 19 19 19 19 19 19 19 19 19 19 19 19 19 19 19 19 19 19 19 18 18 18 18 18 18 18 18 18 18 18 18 18
21 21 21 20 22 22 22 23 22 22 22 22 21 20 19 19 19 20 20 20 19 19 19 19 19 19 19 19 19 19 19 19 19 19 19 19 18 18 18 18 18 18 18 18 18 18 18 18 18
21 21 20 20 22 23 23 23 23 22 22 21 20 19 19 19 20 20 20 20 19 19 19 19 19 19 19 19 19 19 19 19 19 19 19 19 18 18 18 18 18 18 18 18 18 18 18 18 18
22 20 20 21 23 23 23 23 23 22 21 21 20 19 19 19 20 20 20 19 19 19 19 19 19 19 19 19 19 19 19 19 19 19 19 19 19 18 18 18 18 18 18 18 18 18 18 18 18
22 20 21 22 22 23 24 23 22 21 21 21 21 19 19 19 20 20 20 19 19 19 19 19 19 19 19 19 19 19 19 19 19 19 19 19 19 19 19 19 19 18 18 18 18 18 18 18 18
22 20 22 22 23 23 24 23 23 22 22 21 21 19 19 20 20 20 20 19 19 19 19 19 19 19 19 19 19 19 19 19 19 19 19 19 19 19 19 18 18 18 18 18 18 18 18 18 18
23 20 21 22 23 23 24 23 23 23 22 21 21 21 21 20 20 20 19 19 19 19 19 19 19 19 19 19 19 19 19 19 19 19 18 18 18 18 18 18 18 18 18 18 18 18 18 18 18
22 21 23 23 23 23 24 23 23 22 21 21 21 21 20 20 20 20 20 20 19 19 19 19 19 19 19 19 19 19 19 18 18 18 18 18 18 18 18 18 18 18 18 18 18 18 18 18 18
22 22 23 24 25 25 24 23 23 22 21 21 21 21 20 20 20 20 20 20 20 20 19 19 19 19 19 19 19 19 19 18 18 18 18 18 18 18 18 18 18 18 18 18 18 18 18 18 18
23 23 25 25 25 25 24 24 23 22 23 23 22 22 21 20 20 20 20 20 20 20 20 20 19 19 19 19 19 19 19 18 18 18 18 18 18 18 18 18 18 18 18 18 18 18 18 18 18
24 24 25 26 25 25 24 24 23 23 23 23 22 21 21 21 20 20 20 20 20 20 20 20 19 19 19 19 19 19 19 19 18 18 18 18 18 18 18 18 18 18 18 18 18 18 18 18 18
25 25 25 25 25 25 24 23 23 22 23 22 21 21 21 21 21 20 20 20 20 20 20 20 20 19 19 19 19 19 19 19 18 18 18 18 18 18 18 18 18 18 18 18 18 18 18 18 18
25 24 24 24 25 24 24 23 23 23 22 22 21 21 21 21 21 21 21 20 20 20 20 20 20 19 19 19 19 19 19 19 18 18 18 18 18 18 18 18 18 18 18 18 18 18 18 18 18
24 23 24 24 24 24 24 23 23 23 22 21 21 21 21 21 21 21 21 21 20 20 20 20 20 20 19 19 19 19 19 19 18 18 18 18 18 18 18 18 18 18 18 18 18 18 18 18 18
23 23 24 24 24 24 24 23 23 22 22 21 21 21 21 21 21 21 21 21 21 21 20 20 20 20 20 19 19 19 19 19 18 18 18 18 18 18 18 18 18 18 18 18 18 18 18 18 18
24 24 24 24 24 24 23 23 22 22 22 21 21 21 21 21 21 21 21 21 21 21 20 20 20 20 20 19 19 19 19 19 19 18 18 18 18 18 18 18 18 18 18 18 18 18 18 18 18
24 24 24 24 24 24 23 23 22 22 22 21 21 21 21 22 22 22 21 21 21 21 21 20 20 20 20 19 19 19 19 19 19 19 18 18 18 18 18 18 18 18 18 18 18 18 18 18 18
24 24 24 24 24 24 23 23 22 22 22 22 22 22 22 22 22 22 21 21 21 21 21 20 20 20 20 20 19 19 19 19 19 19 18 18 18 18 18 18 18 18 18 18 18 18 18 18 18
24 24 24 24 24 24 24 23 22 22 22 22 22 22 22 22 22 22 22 22 21 21 21 21 21 20 20 20 19 19 19 19 19 19 18 18 18 18 18 18 18 18 18 18 18 18 18 18 18
24 24 24 24 23 21 23 22 22 21 21 22 22 22 22 22 22 22 22 22 22 22 21 21 21 20 20 20 19 19 19 19 19 19 19 19 19 19 18 18 18 18 18 18 18 18 18 18 18
24 25 24 23 22 21 22 22 22 21 21 21 22 22 23 23 23 23 23 23 22 22 22 21 21 20 20 20 20 19 19 19 19 19 19 19 19 19 18 18 18 18 18 18 18 18 18 18 18
25 23 22 20 20 21 22 21 21 20 21 22 22 23 23 23 23 23 23 23 23 22 22 22 21 21 20 20 20 20 20 19 19 19 19 19 19 19 19 18 18 19 19 18 18 18 18 18 18
24 22 21 22 20 20 21 21 21 22 22 22 22 23 23 23 23 23 23 23 23 22 22 22 21 21 21 20 20 20 20 20 19 19 19 19 19 19 19 19 19 19 19 18 18 18 18 18 18
23 22 21 22 21 20 21 21 22 23 22 23 23 23 23 23 23 23 23 23 23 23 22 22 22 21 21 21 20 20 20 20 20 20 19 19 19 19 19 19 19 19 19 18 18 18 18 18 18
22 21 21 19 20 21 20 20 21 22 22 21 22 22 23 23 23 24 24 23 23 23 23 22 22 22 21 21 20 20 20 20 20 20 19 19 19 19 19 19 19 18 18 18 18 18 18 18 18
22 20 18 19 20 21 22 21 21 22 22 21 20 21 22 23 23 23 23 23 23 23 23 22 22 22 21 21 21 20 20 20 20 20 19 19 19 19 19 19 19 18 18 18 18 18 18 18 18
22 20 18 17 19 20 21 21 22 21 21 20 20 21 22 23 23 23 23 23 23 23 23 22 22 22 21 21 21 20 20 20 20 20 19 19 19 19 19 19 19 19 18 18 18 18 18 18 18
22 21 19 20 19 18 19 21 22 21 20 20 20 21 22 23 23 23 23 23 22 22 22 22 22 22 21 21 21 20 20 20 20 20 20 19 19 19 19 19 19 19 18 18 18 18 18 18 18
Wind_Speed
9 6 2 1 4 5 3 3 1 2 2 2 4 5 5 3 1 2 0 3 4 2 2 6 8 9 9 10 10 10 11 12 11 12 13 14 15 15 15 16 17 18 18 19 20 20 20 20 20
6 4 1 2 4 3 3 2 2 2 3 3 4 5 5 4 2 3 1 2 4 4 3 6 9 9 9 10 10 10 11 11 11 12 13 14 15 15 16 16 17 17 18 19 19 19 19 19 18
5 3 2 4 3 2 1 0 3 4 4 3 3 4 4 2 2 1 1 3 4 4 4 6 9 9 9 9 10 10 10 11 11 11 13 14 14 15 16 16 17 17 18 19 19 19 19 18 17
2 1 3 4 2 2 2 2 5 5 4 5 4 5 4 3 1 2 3 4 6 4 5 6 9 9 9 9 9 9 10 11 11 11 12 13 14 15 15 16 16 17 18 18 18 18 17 17 16
1 3 5 4 3 2 1 4 4 3 2 3 4 4 3 4 5 6 6 6 7 4 4 6 9 8 9 9 9 9 10 10 10 11 12 13 13 14 15 15 16 16 17 17 17 16 16 15 14
3 3 4 2 3 2 2 3 4 4 4 4 4 4 2 3 5 5 6 6 5 5 4 5 8 8 8 8 9 9 10 10 10 12 12 13 13 13 13 14 14 15 16 15 15 14 14 14 12
3 3 2 0 1 1 2 3 4 4 4 3 4 4 2 2 3 5 6 6 5 5 4 3 4 6 7 8 8 8 9 10 11 12 12 12 12 12 11 12 13 14 14 14 13 13 13 12 11
3 4 2 0 1 1 3 4 3 4 4 4 4 5 3 3 5 6 6 6 5 4 4 3 3 4 4 5 6 7 8 9 10 11 11 11 11 10 10 10 11 12 12 12 12 12 11 10 10
2 4 1 3 4 3 4 4 3 4 6 3 3 4 5 9 8 7 6 4 3 3 2 2 2 2 3 3 4 5 6 7 8 8 9 9 7 7 7 9 10 10 10 10 10 9 9 9 8
3 2 5 4 5 5 5 5 6 5 5 4 5 6 9 10 8 7 6 5 4 3 2 2 2 1 2 2 3 3 4 4 5 5 6 6 6 5 7 8 9 9 9 8 8 7 7 6 4
4 4 4 2 3 6 7 6 5 8 3 5 8 10 11 10 7 7 6 4 4 3 3 2 2 2 2 1 2 2 2 3 3 4 5 5 5 4 5 4 4 4 5 5 5 5 4 4 3
3 3 3 2 3 5 7 7 5 5 5 7 11 13 12 10 9 8 7 5 4 3 3 2 3 2 2 1 1 1 1 1 1 2 4 4 3 2 3 3 3 2 2 3 3 2 3 3 2
2 2 1 1 4 5 6 5 5 3 5 9 11 11 11 10 8 6 6 5 5 5 4 3 3 3 2 2 1 2 1 2 2 2 3 4 3 2 2 2 2 2 2 2 2 2 3 2 2
1 0 2 3 5 3 6 4 4 3 8 10 10 9 9 9 8 6 6 6 6 6 5 4 4 4 3 3 2 2 2 2 2 2 3 4 3 2 2 2 2 1 1 2 2 2 2 2 2
2 4 5 3 3 2 6 2 3 7 10 10 9 8 8 7 7 7 8 7 7 6 6 5 5 4 4 4 3 3 2 3 2 2 3 3 4 3 2 2 1 1 2 3 3 3 3 2 2
4 5 2 2 2 3 6 4 4 9 11 10 9 8 7 7 7 7 7 6 6 6 6 6 6 5 4 4 3 2 3 3 2 2 3 4 4 4 3 2 1 2 3 3 2 2 2 2 1
4 1 1 2 2 3 4 4 5 9 11 10 9 8 8 7 7 6 7 7 7 6 6 6 5 6 5 4 3 2 2 2 2 3 3 4 4 5 4 2 2 3 3 2 2 2 2 2 1
3 2 2 3 3 4 4 5 5 10 10 10 9 8 9 10 10 7 7 7 6 6 5 6 5 5 5 4 3 2 1 1 1 2 3 4 4 5 4 3 3 3 3 2 2 2 2 2 1
5 3 4 4 2 4 5 5 6 9 9 9 9 10 10 10 8 7 7 7 6 6 6 6 6 5 5 3 3 2 1 1 1 2 3 4 4 5 4 3 3 3 3 3 3 3 3 2 2
4 3 3 3 1 3 3 5 4 9 12 12 13 12 12 9 7 7 7 7 7 8 7 6 6 6 5 4 3 2 2 1 1 1 1 3 4 5 4 4 3 3 3 3 3 3 2 1 1
4 6 5 3 2 2 1 4 3 4 6 7 9 10 10 12 12 10 9 9 8 8 9 9 7 6 5 5 3 3 2 2 1 0 1 1 2 3 3 4 3 3 3 3 3 4 3 2 1
5 6 6 3 3 2 1 3 6 4 5 8 10 10 12 12 11 11 10 10 10 10 9 8 7 6 6 6 5 5 4 3 2 2 1 1 1 2 3 4 4 4 3 3 3 4 3 3 2
6 3 4 3 3 1 1 1 7 1 6 10 11 12 12 12 12 12 12 12 11 10 9 8 7 6 6 6 7 6 4 3 2 1 1 0 0 1 2 3 3 4 3 4 3 3 4 3 3
5 7 7 6 5 1 4 3 7 4 8 8 10 11 11 10 11 11 10 9 9 8 8 8 8 7 6 6 6 6 6 5 3 2 2 1 1 0 1 2 2 3 3 3 4 4 4 4 4
6 6 4 4 3 5 2 3 9 7 6 8 10 11 10 9 10 10 11 11 11 10 10 9 9 8 7 7 7 7 6 6 5 4 3 3 1 1 1 2 2 2 3 3 3 3 4 4 4
5 9 8 6 6 5 2 6 8 6 5 5 6 6 7 9 9 10 12 12 12 12 11 10 10 9 8 7 7 6 6 5 4 4 4 4 3 3 2 2 2 2 2 3 3 3 3 3 4
6 4 6 7 3 1 5 7 8 4 3 2 1 3 6 9 10 10 10 11 11 11 12 11 11 9 8 8 6 5 6 5 5 4 4 3 3 3 3 3 2 2 2 3 3 2 3 3 3
6 8 6 6 6 3 5 5 5 6 5 3 2 3 6 6 7 7 8 9 9 10 9 9 10 9 8 8 7 7 6 6 5 4 4 4 4 3 3 3 3 2 2 3 3 2 2 2 2
4 5 5 5 5 6 4 7 5 7 6 5 5 5 5 6 7 7 7 7 8 8 9 9 8 8 7 8 7 6 5 5 5 5 5 4 4 4 4 4 4 3 3 2 3 3 3 2 2
4 6 7 6 4 5 5 7 5 4 4 4 4 4 4 5 5 6 6 6 7 8 8 9 9 9 8 7 6 6 5 5 5 5 4 4 4 4 4 4 4 4 3 3 3 4 3 3 3
Wind_Direction
150 143 141 105 53 45 11 338 64 68 49 41 63 74 80 61 88 146 350 113 109 99 106 110 105 100 98 97 96 95 97 97 97 98 98 99 103 108 112 117 122 125 126 126 126 127 126 126 126
145 153 148 55 71 53 332 332 56 75 126 121 70 63 64 55 51 100 100 130 115 115 108 113 110 103 101 99 97 95 96 100 100 99 102 103 105 108 112 114 119 123 124 126 126 126 127 126 127
160 185 80 62 80 153 222 169 116 95 96 76 68 56 66 67 75 135 183 141 116 114 111 118 112 107 103 100 95 95 97 99 101 102 104 106 108 110 113 115 117 119 121 123 126 127 128 128 129
155 63 56 58 24 252 205 159 131 115 61 47 79 64 53 47 86 125 113 121 122 116 116 126 116 109 103 100 98 95 95 99 102 104 106 106 107 110 112 113 115 117 119 122 124 126 128 128 129
78 68 49 27 340 332 118 129 120 108 74 57 77 78 36 15 74 97 99 110 120 115 114 126 118 109 105 102 96 92 95 99 103 108 110 109 107 107 110 111 114 117 121 124 124 126 128 129 129
56 64 63 12 336 8 89 115 108 89 89 83 82 83 47 51 85 104 103 100 107 110 105 119 121 116 109 104 99 94 97 98 101 112 113 112 110 108 108 110 114 117 121 123 124 126 126 127 128
94 83 102 207 311 337 153 115 115 111 102 106 110 93 66 71 99 106 99 94 94 92 87 85 111 114 112 105 99 96 100 100 100 106 111 111 110 109 109 111 116 118 121 123 125 126 126 129 130
130 100 70 255 189 247 138 113 115 113 109 114 110 127 169 181 120 97 91 90 90 87 83 75 78 90 99 109 106 98 97 101 102 103 105 106 106 108 110 111 117 120 123 124 126 128 129 129 130
110 73 179 214 191 195 144 121 111 91 108 111 105 135 155 139 122 106 95 87 97 112 88 90 84 90 102 113 113 101 96 95 94 96 100 95 88 90 100 112 118 121 124 127 128 127 126 126 127
105 135 225 213 190 168 152 138 140 115 114 98 84 92 121 134 138 137 141 150 161 169 158 133 124 112 114 119 101 84 85 78 75 75 82 82 81 86 94 105 116 119 122 124 126 125 123 120 122
162 200 239 235 184 153 144 139 129 130 159 179 156 146 145 148 153 159 164 172 182 179 177 170 167 147 133 95 108 92 78 73 70 72 83 84 77 70 69 71 82 92 109 105 112 106 107 117 126
189 246 227 239 145 141 147 140 128 158 193 165 154 151 153 160 170 176 180 183 176 174 197 186 163 149 158 134 119 116 106 104 101 95 102 102 86 68 73 71 58 53 67 78 87 96 96 99 119
202 269 301 144 112 121 114 125 136 158 129 127 137 148 160 170 178 184 184 182 180 189 200 193 172 170 168 149 172 150 154 159 155 134 127 129 124 107 100 102 89 75 86 92 102 104 106 108 114
225 26 31 69 93 104 120 119 116 158 135 133 147 163 173 177 179 176 177 180 190 197 201 190 183 182 167 165 172 166 173 169 163 165 162 154 151 138 119 105 100 97 112 123 122 128 122 118 120
62 49 38 44 80 105 109 91 187 162 144 149 164 174 181 186 183 186 187 184 191 194 192 186 184 177 173 175 179 171 172 162 165 177 177 170 163 153 145 119 106 111 106 102 99 95 102 112 108
49 57 40 301 109 127 127 225 209 159 155 165 175 183 191 197 197 196 187 183 184 181 180 185 181 170 176 174 169 163 166 166 180 188 190 186 176 167 157 143 148 129 111 106 107 101 103 100 99
37 89 231 275 182 152 162 225 196 169 169 178 185 190 195 199 205 200 188 182 179 179 174 174 173 167 169 158 148 148 154 171 189 192 192 192 189 179 165 162 154 134 120 115 127 115 123 123 101
218 204 233 228 218 160 197 233 194 178 184 188 192 195 199 204 209 199 189 181 174 173 169 169 168 164 151 137 125 109 113 152 190 203 208 200 195 185 165 161 150 137 127 122 122 130 121 136 144
177 184 241 251 207 169 219 241 214 185 190 194 198 201 207 214 208 192 186 175 165 167 168 173 170 166 150 141 148 146 186 199 207 223 218 211 197 184 173 167 155 149 152 155 143 131 123 117 112
169 202 248 289 180 165 226 257 224 193 203 201 200 205 207 208 198 191 187 179 178 179 178 179 180 173 170 166 159 153 154 177 211 235 232 211 193 188 182 170 170 164 154 147 146 136 130 122 119
204 200 213 216 21 35 86 316 256 223 213 210 208 208 207 204 200 196 192 191 186 187 188 191 188 180 176 162 133 113 87 66 70 61 268 242 203 196 188 177 170 172 167 175 177 166 158 170 166
239 218 191 155 99 302 103 270 279 231 228 220 218 210 210 210 199 194 194 193 194 196 189 187 183 180 176 164 159 157 165 182 203 200 218 250 187 184 188 183 178 181 179 183 190 183 175 169 184
208 145 138 129 132 29 358 193 286 236 239 235 227 217 212 207 198 195 196 197 198 191 184 184 176 180 178 175 175 170 175 184 173 152 174 215 173 179 182 178 177 180 184 190 190 181 181 180 182
132 74 61 53 71 298 242 183 278 240 230 239 226 218 210 205 199 196 192 189 191 183 179 179 176 185 182 179 179 179 180 177 169 181 199 224 216 188 184 178 178 184 188 197 200 195 189 191 189
108 98 46 3 6 253 245 203 251 257 246 230 223 217 206 197 194 190 185 188 190 186 185 181 179 189 188 185 189 190 186 179 184 192 197 198 198 209 232 203 192 197 199 198 194 188 194 193 191
172 144 160 193 214 264 264 232 252 267 279 246 224 210 193 189 192 192 191 190 191 189 186 181 183 192 188 190 196 193 187 185 192 194 192 197 205 216 217 200 195 200 194 194 179 185 201 194 200
144 167 162 138 148 223 277 285 301 300 333 336 236 184 191 192 191 192 188 185 185 186 186 184 184 189 191 192 191 192 192 192 196 196 193 200 206 211 205 197 200 208 198 187 172 182 201 195 204
136 142 107 126 151 230 285 279 264 286 290 293 253 214 209 193 182 179 180 181 182 184 182 180 181 190 192 190 192 202 201 198 194 191 200 205 209 203 188 193 200 202 199 189 173 189 210 198 215
101 102 110 124 153 164 233 266 234 238 243 230 227 217 204 188 182 180 178 177 170 168 172 177 179 184 191 193 193 199 198 194 190 199 208 207 209 200 197 194 192 192 194 193 182 199 206 208 228
156 159 147 157 203 178 185 259 276 238 244 219 218 208 192 181 177 172 162 158 165 174 179 181 185 189 192 189 184 192 190 187 190 200 208 205 208 205 199 186 187 195 198 196 191 206 214 210 225
Height
1485 1485 1486 1488 1490 1499 1500 1493 1488 1489 1489 1489 1489 1489 1490 1493 1496 1500 1496 1493 1493 1493 1494 1494 1493 1494 1493 1493 1493 1492 1492 1492 1492 1492 1492 1492 1493 1494 1495 1497 1498 1500 1503 1505 1508 1512 1515 1517 1520
1486 1486 1488 1489 1497 1509 1504 1492 1490 1489 1489 1490 1490 1491 1492 1493 1494 1494 1494 1494 1494 1495 1495 1496 1495 1496 1496 1495 1495 1495 1494 1494 1494 1495 1495 1496 1497 1497 1499 1500 1501 1503 1506 1508 1511 1514 1517 1520 1523
1486 1487 1489 1491 1500 1506 1501 1491 1490 1490 1490 1490 1491 1493 1494 1495 1495 1494 1493 1493 1494 1495 1497 1498 1498 1498 1498 1498 1497 1497 1496 1496 1496 1497 1498 1499 1500 1501 1502 1503 1505 1507 1509 1512 1515 1518 1520 1523 1526
1488 1489 1490 1496 1500 1496 1492 1490 1489 1490 1491 1492 1493 1495 1496 1498 1497 1496 1493 1490 1493 1496 1499 1500 1500 1500 1500 1500 1500 1499 1498 1498 1498 1499 1500 1501 1503 1504 1505 1507 1508 1511 1513 1516 1518 1521 1524 1526 1529
1488 1489 1495 1502 1499 1492 1489 1489 1490 1491 1492 1493 1494 1497 1498 1499 1498 1497 1495 1493 1495 1498 1501 1502 1503 1503 1503 1502 1502 1500 1499 1499 1499 1500 1502 1504 1505 1507 1509 1510 1512 1514 1516 1519 1521 1524 1526 1529 1532
1490 1491 1504 1508 1499 1491 1490 1490 1492 1493 1494 1495 1496 1498 1500 1501 1501 1500 1499 1499 1500 1502 1504 1505 1505 1505 1505 1505 1504 1503 1502 1501 1500 1501 1504 1506 1508 1510 1511 1513 1515 1517 1520 1522 1524 1527 1529 1532 1534
1492 1495 1503 1502 1500 1495 1492 1492 1493 1494 1495 1497 1498 1500 1502 1502 1503 1503 1503 1504 1504 1505 1506 1507 1508 1508 1508 1508 1507 1506 1505 1505 1504 1505 1507 1509 1511 1513 1515 1516 1519 1520 1523 1525 1528 1530 1532 1535 1537
1491 1495 1501 1501 1500 1497 1492 1493 1494 1495 1496 1498 1499 1500 1502 1504 1504 1505 1506 1507 1507 1508 1509 1510 1510 1510 1510 1511 1511 1510 1509 1509 1509 1510 1511 1513 1514 1516 1518 1520 1522 1524 1526 1528 1531 1533 1535 1537 1539
1491 1499 1504 1499 1497 1494 1492 1493 1495 1496 1497 1499 1500 1501 1502 1504 1505 1506 1507 1508 1509 1510 1511 1512 1512 1513 1513 1514 1514 1514 1513 1513 1514 1514 1516 1517 1518 1520 1521 1523 1525 1527 1529 1531 1533 1535 1537 1539 1541
1491 1501 1497 1490 1489 1490 1491 1493 1495 1498 1499 1500 1501 1502 1503 1505 1506 1507 1508 1509 1511 1512 1513 1513 1514 1515 1516 1516 1517 1517 1517 1517 1518 1519 1520 1521 1522 1523 1524 1526 1528 1530 1532 1534 1536 1538 1540 1541 1543
1490 1493 1488 1486 1486 1488 1490 1493 1495 1497 1500 1499 1500 1502 1504 1505 1507 1508 1510 1511 1513 1514 1514 1515 1516 1517 1518 1519 1519 1520 1520 1521 1522 1523 1523 1524 1525 1526 1527 1529 1531 1533 1535 1536 1538 1540 1542 1543 1544
1489 1487 1486 1485 1486 1488 1490 1493 1496 1497 1498 1498 1500 1502 1504 1506 1508 1509 1511 1512 1514 1515 1516 1517 1518 1519 1520 1520 1521 1522 1523 1524 1525 1526 1527 1527 1528 1529 1530 1531 1533 1535 1537 1538 1540 1541 1543 1544 1546
1488 1486 1485 1485 1486 1488 1491 1493 1495 1497 1498 1500 1502 1504 1505 1506 1509 1511 1513 1514 1515 1516 1517 1519 1519 1520 1521 1522 1523 1524 1525 1526 1527 1528 1529 1530 1531 1531 1532 1534 1535 1537 1538 1540 1541 1543 1544 1545 1547
1486 1486 1486 1486 1487 1490 1492 1495 1496 1498 1499 1501 1503 1504 1506 1507 1509 1511 1513 1514 1516 1517 1518 1519 1521 1522 1523 1523 1524 1525 1527 1528 1529 1530 1531 1532 1533 1534 1535 1536 1537 1538 1540 1541 1542 1544 1545 1546 1547
1486 1488 1489 1489 1489 1491 1494 1498 1496 1497 1499 1502 1504 1506 1507 1508 1510 1511 1512 1514 1516 1517 1519 1520 1521 1523 1524 1525 1526 1527 1528 1529 1530 1531 1533 1534 1535 1536 1537 1537 1538 1539 1541 1542 1543 1545 1546 1547 1547
1488 1495 1500 1493 1491 1492 1498 1505 1496 1497 1499 1501 1504 1506 1507 1509 1510 1511 1513 1514 1516 1517 1519 1520 1522 1523 1524 1525 1527 1528 1529 1530 1531 1532 1534 1535 1536 1537 1538 1538 1539 1540 1542 1543 1544 1545 1546 1547 1548
1499 1505 1503 1497 1491 1492 1496 1500 1494 1496 1498 1500 1503 1505 1506 1508 1509 1511 1512 1514 1516 1517 1519 1520 1522 1523 1525 1526 1527 1528 1530 1531 1532 1533 1534 1535 1536 1537 1538 1539 1540 1541 1542 1543 1544 1545 1546 1547 1548
1505 1504 1502 1500 1492 1493 1496 1496 1493 1495 1497 1499 1501 1503 1504 1505 1507 1509 1512 1514 1515 1517 1519 1521 1522 1524 1525 1526 1527 1529 1530 1531 1532 1533 1534 1536 1537 1538 1539 1539 1540 1541 1542 1543 1544 1545 1546 1547 1548
1493 1498 1501 1496 1490 1493 1496 1495 1492 1493 1495 1497 1499 1500 1501 1503 1506 1508 1511 1513 1515 1517 1518 1520 1522 1523 1525 1526 1527 1528 1529 1531 1532 1533 1534 1535 1536 1537 1538 1539 1540 1541 1542 1543 1544 1545 1546 1547 1547
1492 1498 1499 1494 1489 1492 1496 1495 1491 1491 1491 1492 1494 1496 1498 1501 1504 1506 1509 1511 1513 1515 1517 1519 1521 1523 1524 1526 1527 1529 1530 1531 1532 1533 1534 1535 1536 1537 1538 1539 1540 1541 1542 1543 1544 1545 1545 1546 1547
1493 1496 1496 1497 1493 1492 1496 1499 1493 1490 1490 1492 1493 1494 1496 1498 1500 1503 1506 1508 1511 1514 1516 1518 1520 1522 1524 1526 1527 1528 1530 1531 1532 1533 1534 1535 1536 1537 1537 1538 1540 1541 1542 1543 1544 1544 1545 1546 1547
1495 1486 1488 1493 1503 1509 1504 1517 1497 1491 1490 1489 1489 1490 1491 1494 1497 1500 1503 1506 1508 1511 1514 1517 1519 1522 1523 1525 1526 1527 1528 1530 1531 1532 1534 1535 1535 1536 1537 1538 1539 1540 1541 1542 1543 1544 1544 1545 1545
1485 1482 1487 1494 1503 1511 1508 1515 1504 1492 1492 1487 1484 1485 1487 1490 1493 1495 1499 1502 1506 1509 1512 1515 1518 1520 1522 1524 1525 1527 1528 1529 1531 1532 1533 1534 1535 1536 1536 1537 1538 1539 1540 1541 1542 1543 1543 1544 1544
1479 1487 1494 1503 1511 1522 1512 1516 1510 1496 1487 1481 1479 1480 1483 1486 1489 1492 1496 1500 1503 1507 1510 1513 1516 1518 1520 1522 1524 1525 1527 1528 1530 1531 1532 1533 1534 1535 1536 1536 1537 1538 1539 1540 1541 1541 1542 1542 1543
1482 1500 1520 1523 1532 1527 1510 1512 1505 1482 1477 1475 1474 1475 1478 1482 1485 1488 1492 1495 1499 1503 1507 1510 1513 1516 1518 1520 1522 1524 1525 1527 1528 1530 1531 1532 1533 1534 1534 1535 1536 1537 1537 1539 1539 1540 1540 1541 1541
1485 1494 1519 1530 1533 1525 1512 1512 1492 1475 1472 1471 1471 1472 1475 1478 1481 1484 1488 1491 1495 1499 1503 1507 1510 1513 1516 1518 1520 1522 1524 1526 1527 1528 1530 1530 1531 1532 1533 1534 1535 1535 1536 1537 1538 1538 1539 1539 1540
1486 1494 1493 1513 1520 1523 1516 1504 1485 1472 1471 1470 1471 1471 1472 1475 1478 1481 1485 1488 1492 1496 1500 1503 1506 1510 1513 1516 1518 1520 1522 1524 1525 1527 1528 1529 1529 1530 1531 1532 1533 1534 1535 1535 1536 1537 1537 1537 1537
1476 1486 1501 1513 1526 1528 1516 1508 1498 1479 1474 1472 1471 1470 1470 1472 1476 1479 1482 1486 1489 1493 1497 1501 1503 1507 1510 1513 1516 1518 1520 1522 1524 1525 1526 1527 1527 1528 1529 1530 1531 1532 1533 1533 1534 1534 1535 1535 1535
1482 1489 1498 1509 1511 1523 1524 1509 1479 1476 1472 1471 1469 1468 1469 1471 1474 1477 1480 1484 1487 1491 1495 1498 1502 1505 1508 1510 1513 1516 1518 1519 1521 1522 1523 1524 1525 1526 1526 1527 1528 1529 1530 1531 1532 1532 1533 1533 1533
1474 1481 1492 1503 1510 1514 1516 1504 1470 1470 1468 1468 1467 1468 1469 1470 1473 1476 1479 1483 1486 1489 1493 1496 1499 1502 1505 1508 1510 1513 1515 1517 1518 1520 1521 1522 1522 1523 1524 1524 1525 1526 1527 1528 1529 1529 1530 1530 1530